User: anonymous   Login
Location: Unspecified
(0.0000°N, 0.0000°E)
Time: 12:45:44
(UTC+00:00)
Language:

Telecom 1B - Orbit

View from above orbital plane
View from above orbital plane
View from above satellite
View from above satellite

Ground track
Ground track

The orbit data is extracted from the following two-line orbital elements,

1 15678U 85035B   18293.28931420 +.00000101 +00000-0 +00000-0 0  9992
2 15678 014.1821 344.5849 0004252 287.1811 074.8743 01.00186044108976
Epoch (UTC): 20 October 2018 06:56:36
Eccentricity: 0.0004252
inclination: 14.1821°
perigee height: 35792 km
apogee height: 35828 km
right ascension of ascending node: 344.5849°
argument of perigee: 287.1811°
revolutions per day: 1.00186044
mean anomaly at epoch: 74.8743°
orbit number at epoch: 10897

The dashed part of the orbit path shows where the satellite is in the earth's shadow,  

DLR